Hourly Data Report for October 05, 2015

All times are specified in Local Standard Time (LST). Add 1 hour to adjust for Daylight Saving Time where and when it is observed.

CORAL HARBOUR A
NUNAVUT

64°11'36.000" N
83°21'34.000" W
62.20 m
2301002
71915
YZS

Download Data

Hourly Data (October 2015)
Hourly Data Report for October 5, 2015
Temp Definition
°C
Dew Point Temp Definition
°C
Rel Hum Definition
%
Wind Dir Definition
10's deg

Wind Spd Definition
km/h
Visibility Definition
km
Stn Press Definition
kPa
Hmdx Definition


Wind Chill Definition


Weather Definition


TIME
00:00 Legend Double Dagger -1.9 -6.3 72 29 16 24.1 101.60   -7 LegendNANA
01:00 Legend Double Dagger -2.0 -6.0 74 28 13 24.1 101.56   -6 Cloudy
02:00 Legend Double Dagger -2.0 -6.2 73 28 18 24.1 101.53   -7 LegendNANA
03:00 Legend Double Dagger -2.0 -6.4 72 32 16 24.1 101.50   -7 LegendNANA
04:00 Legend Double Dagger -2.0 -5.7 76 30 15 24.1 101.47   -7 Cloudy
05:00 Legend Double Dagger -2.3 -6.7 72 30 15 24.1 101.45   -7 LegendNANA
06:00 Legend Double Dagger -3.1 -7.1 74 28 21 24.1 101.46   -9 LegendNANA
07:00 Legend Double Dagger -3.0 -7.0 74 30 12 24.1 101.46   -7 Cloudy
08:00 Legend Double Dagger -2.9 -6.6 76 28 15 24.1 101.43   -8 LegendNANA
09:00 Legend Double Dagger -3.1 -7.3 73 29 19 24.1 101.40   -9 LegendNANA
10:00 Legend Double Dagger -2.7 -6.9 73 29 16 24.1 101.35   -8 Cloudy
11:00 Legend Double Dagger -2.4 -7.0 71 32 15 24.1 101.31   -7 LegendNANA
12:00 Legend Double Dagger -1.7 -6.9 68 28 22 24.1 101.25   -8 LegendNANA
13:00 Legend Double Dagger -1.5 -7.1 66 30 13 24.1 101.21   -6 Cloudy
14:00 Legend Double Dagger -1.1 -6.3 68 27 20 24.1 101.19   -7 LegendNANA
15:00 Legend Double Dagger -0.9 -5.9 69 24 21 24.1 101.15   -7 LegendNANA
16:00 Legend Double Dagger -0.7 -5.9 68 24 16 24.1 101.12   -5 Cloudy
17:00 Legend Double Dagger -0.7 -5.7 69 26 13 24.1 101.09   -5 LegendNANA
18:00 Legend Double Dagger -0.7 -6.1 67 24 14 24.1 101.05   -5 LegendNANA
19:00 Legend Double Dagger -0.8 -6.0 68 22 12 24.1 101.02   -5 Cloudy
20:00 Legend Double Dagger -1.0 -5.4 72 22 11 24.1 101.00   -5 LegendNANA
21:00 Legend Double Dagger -1.1 -5.7 71 22 11 24.1 100.94   -5 LegendNANA
22:00 Legend Double Dagger -1.3 -5.0 76 20 16 24.1 100.91   -6 Cloudy
23:00 Legend Double Dagger -1.5 -5.4 75 21 14 24.1 100.88   -6 LegendNANA

Notes on Data Quality.

Legend

  • E = Estimated
  • M = Missing
  • NA = Not Available
  • ‡ = Partner data that is not subject to review by the National Climate Archives
Date modified: